Terminal Aerodrome Forecast
Issued by NWS Upton, NY

Home | Current Version | Previous Version | Text Only | Print | Product List | Glossary On
Versions: 1 2 3 4 5 6 7 8 9 10 11 12 13 14 15 16 17 18 19 20 21 22 23 24 25 26 27 28 29
000
FTUS41 KOKX 131900 AAB
TAFEWR
TAF AMD
KEWR 131939Z 1320/1424 18013G20KT P6SM SCT040 BKN050 BKN150
      TEMPO 1320/1321 SHRA
     FM140000 20009KT P6SM BKN060 BKN100
      TEMPO 1401/1404 4SM TSRA BKN040CB
     FM140700 22008KT 4SM BR SCT006 BKN040 BKN080
     FM141500 22010KT P6SM SCT020 BKN040
     FM141800 20012KT P6SM BKN050 PROB30 1418/1424 TSRA BKN040CB=

USA.gov is the U.S. government's official web portal to all federal, state and local government web resources and services.